PHISAT 2 (60470 NORAD) Tracking and Keplerian Element Data

This shows tracking and keplerian element data for the satellite.

Feedback or suggestion? Click here.




ElementValue
Catalog60470
NamePHISAT 2
Epoch Orbit863
Epoch Day286.7291394
Epoch Year2024
RAAN1.3342
Inclination97.4376
Eccentricity0.0001264
Argument of Perigee186.1502
Mean Anonmoly173.9717
Mean Motion15.18706796
Decay Rate0.00018136
L11 60470U 24149C 24286.72913940 .00018136 00000+0 87585-3 0 9998
L22 60470 97.4376 1.3342 0001264 186.1502 173.9717 15.18706796 8636



Live tracking and technical data element details for PHISAT 2 (NORAD 60470). PHISAT 2 can be tracked NOW for your location showing map with azimuth and elevation plus other details from your city location.







IsCatalogInMostPopularTable: catalog: 60470, numindb: 6
Update: records affected: 1



GetName: 60470 PHISAT 2

Hit Count: updated at: Tue, 03 Dec 2024 02:12:49 GMT